Location: Anuling
(14.1239°N, 120.8922°E)
Time: 05:32:20
(UTC+00:00)

NOAA 6 - Visible Passes

Search period start: 19 April 2026 00:00
Search period end: 29 April 2026 00:00
Orbit: 766 x 781 km, 98.6° (Epoch: 18 April)

Date Brightness Start Highest point End Pass type
(mag) Time Alt. Az. Time Alt. Az. Time Alt. Az.
19 Apr 4.0 11:13:01 10° S 11:18:07 83° WSW 11:23:12 10° NNW visible
20 Apr 4.5 10:39:13 10° SE 10:43:53 38° ENE 10:48:33 10° N visible
20 Apr 6.8 12:20:28 10° SW 12:22:54 13° W 12:25:19 10° WNW visible
21 Apr 5.5 11:43:56 10° SSW 11:48:32 35° W 11:53:09 10° NW visible
22 Apr 3.9 11:09:09 10° SSE 11:14:15 88° ENE 11:19:20 10° NNW visible
23 Apr 4.7 10:35:28 10° SE 10:40:01 34° ENE 10:44:33 10° NNE visible
23 Apr 6.7 12:16:08 10° SW 12:19:00 15° W 12:21:53 10° WNW visible
24 Apr 5.3 11:39:56 10° S 11:44:39 39° W 11:49:22 10° NNW visible
25 Apr 3.9 11:05:17 10° SSE 11:10:22 80° ENE 11:15:26 10° N visible
26 Apr 4.8 10:31:45 10° SE 10:36:09 30° ENE 10:40:32 10° NNE visible
26 Apr 6.6 12:11:54 10° SW 12:15:07 17° W 12:18:20 10° WNW visible
27 Apr 5.1 11:35:57 10° S 11:40:46 44° WSW 11:45:35 10° NNW visible
28 Apr 3.9 11:01:25 10° SSE 11:06:29 71° ENE 11:11:31 10° N visible
